FENGYUN 1C DEB

Satellite information

Favourite Embed

Satellite Type and Status

DEBRISIN ORBIT

Key statistics

Satellite FENGYUN 1C DEB at a glance.

Uptime

9554

Days in orbit

Revolutions

≈ 14.5

Per day

Orbit

SSO

Sun Synchronous Orbit

Inclination

98.9

Latest

Satellite identification and parameters

Extended collection of information and parameters for FENGYUN 1C DEB.

Object identification

Identified? True

Debris? True

Object name: FENGYUN 1C DEB

International designator: 1999-025BGU

Object number (NORAD): 31098

Object ID (CCSDS): 31098

Country: PEOPLES REPUBLIC OF CHINA (PRC)

Current information (Y/N): Y

RCS size: SMALL

Orbital parameters

Period: 99.517 minutes

Inclination: 98.8672 deg

SMA: 7113.65 km

Apoapsis: 745.136 km

Periapsis: 725.895 km

RAAN: 295.7025 deg

Eccentricy: 0.0013524

Argument of periapsis: 27.2992 deg

Mean anomaly: 332.8906 deg

Mean motion: 14.46984865 rev/day

Mean motion (dot): 0.00006907 rev/day2

B* drag term: 0.0019091 1/REarth

Two-line elements (TLE)

Creation date: July 4, 2025, 10:36 p.m.

Reference frame: TEME

Reference center: EARTH

Epoch: July 4, 2025, 8:05 p.m. UTC

TLE line 0: 0 FENGYUN 1C DEB

TLE line 1: 1 31098U 99025BGU 25185.83726346 .00006907 00000-0 19091-2 0 9990

TLE line 2: 2 31098 98.8672 295.7025 0013524 27.2992 332.8906 14.46984865947320

Live tracking on map

Real-time ground track for satellite FENGYUN 1C DEB.

In-orbit conjunctions

A list of the most updated potential collisions computed for object FENGYUN 1C DEB.

Target Orbit TCA Probability of collision Miss distance Type
CZ-6A DEB LEO 2025-02-21 05:03:18 0.000154612 872.0 (m) DEBRIS
SPOT 1 SSO 2024-11-02 04:55:14 0.0001101157 81.0 (m) PAYLOAD
FENGYUN 1C DEB SSO 2024-10-13 16:30:08 0.0001038924 285.0 (m) DEBRIS
COSMOS 2251 LEO 2024-07-27 04:11:57 0.0001353958 731.0 (m) PAYLOAD
ALEXIS LEO 2024-07-08 02:03:01 0.0005791481 153.0 (m) PAYLOAD

Associated space launch

Chinese polar orbiting meteorological satellite

FENGYUN 1C DEB was lifted into orbit during the mission ‘Long March 4B | Feng Yun 1C’, on board a Long March 4B space rocket.

The launch took place on May 10, 1999, 1:33 a.m. from Launch Complex 7.

For more information about the launch, click the button.

Launch to space Long March 4B | Feng Yun 1C
Long March 4B | Feng Yun 1C

Agency: N/A

Status: Launch Successful

Launch date: May 10, 1999, 1:33 a.m. UTC

Rocket: Long March 4B

Launch pad: Launch Complex 7

Location: Taiyuan Satellite Launch Center, People's Republic of China

...

Latest news about this satellite

There are no fresh news available about this satellite. Check back as we update our databases every day.


Newsletter sign-up

Weekly statistics, charts and insights to help you stay on top of the space industry.